Location: ??
(35.5052°N, 139.7262°E)
Time: 02:55:50
(UTC+00:00)

CZ-2C R/B - Visible Passes

Search period start: 23 October 2021 00:00
Search period end: 02 November 2021 00:00
Orbit: 668 x 784 km, 98.2° (Epoch: 22 October)

Date Brightness Start Highest point End Pass type
(mag) Time Alt. Az. Time Alt. Az. Time Alt. Az.
23 Oct 4.7 18:19:41 10° NNE 18:20:27 15° NNE 18:20:27 15° NNE visible
24 Oct 4.5 19:10:22 10° NNW 19:10:55 13° NNW 19:10:55 13° NNW visible
25 Oct 4.8 18:21:37 10° NNE 18:22:01 12° NNE 18:22:01 12° NNE visible
26 Oct 4.6 19:12:21 10° NNW 19:12:28 11° NNW 19:12:28 11° NNW visible
27 Oct 5.0 18:23:33 10° N 18:23:34 10° N 18:23:34 10° N visible
